Home > Weather > Qikiqtarjuaq > Past weeks

Flag for Canada Weather for the Past 2 Weeks in Qikiqtarjuaq, Nunavut, Canada

Now
-24 °F

Partly cloudy.


Feels Like: -35 °F
Forecast: N/A
Wind: 3 mph from Northeast

Location: Broughton Island Airport

Current Time: Feb 14, 2016 at 6:52:17 PM

Latest Report: Feb 14, 2016 at 6:00 PM


Visibility: 9 mi

Pressure: 29.94 "Hg

Humidity: 68%

Dew point: -31 °F

Location of QikiqtarjuaqLocation

Historic Weather in Qikiqtarjuaq — Graph

°F

Qikiqtarjuaq Temperature Yesterday

Maximum temperature yesterday: -18 °F (at 12:00 AM)
Minimum temperature yesterday: -27 °F (at 10:00 PM)
Average temperature yesterday: -22 °F

High & Low Weather Summary for the Past Weeks

 TemperatureHumidityPressure
High-2 °F (Feb 3, 12:00 AM)84% (Feb 1, 4:54 PM)30.17 "Hg (Feb 1, 4:54 PM)
Low-31 °F (Feb 10, 8:00 AM)30% (Feb 1, 6:00 AM)29.71 "Hg (Feb 7, 8:00 AM)
Average-16 °F75%29.96 "Hg
* Reported Jan 30 5:00 PM — Feb 14 5:00 PM, Qikiqtarjuaq, Weather by CustomWeather, © 2016

Note: Actual official high and low records may vary slightly from our data, if they occured in-between our weather recording intervals... More about our weather records

Advertising

Qikiqtarjuaq Weather History for the Previous 24 Hours

 ConditionsComfort  
Time TempWeatherWind HumidityBarometerVisibility
5:00 PM
Sun, Feb 14
-26 °FPassing clouds.2 mph75%29.96 "Hg9 mi
4:00 PM-26 °FPassing clouds.2 mph75%29.98 "Hg9 mi
3:00 PM-27 °FSunny.5 mph67%29.98 "Hg9 mi
2:00 PM-26 °FSunny.6 mph75%30.00 "Hg9 mi
1:00 PM-27 °FOvercast.7 mph67%30.00 "Hg15 mi
12:00 PM-22 °FOvercast.7 mph68%29.99 "Hg15 mi
11:00 AM-17 °FOvercast.8 mph69%30.01 "Hg15 mi
10:00 AM-18 °FOvercast.9 mph75%30.02 "Hg15 mi
9:00 AM-22 °FOvercast.8 mph75%30.03 "Hg15 mi
8:00 AM-22 °FPartly sunny.2 mph75%30.05 "Hg15 mi
7:00 AM-24 °FPassing clouds.6 mph68%30.06 "Hg15 mi
6:00 AM-27 °FPassing clouds.3 mph67%30.07 "Hg15 mi
5:00 AM-27 °FClear.No wind67%30.07 "Hg9 mi
4:00 AM-27 °FClear.3 mph74%30.08 "Hg9 mi
3:00 AM-22 °FClear.5 mph68%30.09 "Hg9 mi
2:00 AM-24 °FClear.5 mph68%30.10 "Hg9 mi
1:00 AM-26 °FClear.3 mph67%30.10 "Hg9 mi
12:00 AM-26 °FClear.7 mph67%30.09 "Hg9 mi
11:00 PM
Sat, Feb 13
-26 °FClear.6 mph75%30.09 "Hg9 mi
10:00 PM-27 °FClear.2 mph67%30.10 "Hg9 mi
9:00 PM-22 °FClear.No wind75%30.11 "Hg9 mi
8:00 PM-22 °FClear.10 mph75%30.11 "Hg9 mi
7:00 PM-26 °FClear.2 mph67%30.10 "Hg9 mi
6:00 PM-24 °FClear.3 mph68%30.09 "Hg9 mi
Weather by CustomWeather, © 2016

See weather overviewHow to use our weather pages